Waarnemingen

Advertentie
Mijn weer
F3, Nederland (6239): temperatuur & dauwpunt: 14.10.2018 04:00:00 - 20.10.2018 04:00:00 (CEST)F3, Nederland (6239): windsnelheid & windstoten: 14.10.2018 04:00:00 - 20.10.2018 04:00:00 (CEST)F3, Nederland (6239): windrichting: 14.10.2018 04:00:00 - 20.10.2018 04:00:00 (CEST)F3, Nederland (6239): luchtdruk: 14.10.2018 04:00:00 - 20.10.2018 04:00:00 (CEST)F3, Nederland (6239): zicht: 14.10.2018 04:00:00 - 20.10.2018 04:00:00 (CEST)
Datum & Tijd tt [°C] td [°C] ff [km/u] ff [kn] fx [km/u] fx [kn] dd ppp [hPa] vv [km]
20.10.2018 04:00:00 13,3 9,8 31 17 32 18 W 1026,1 33
20.10.2018 03:00:00 13,1 10,0 28 15 36 19 W 1025,9 16
20.10.2018 02:00:00 13,1 8,5 29 16 32 18 W 1025,4 31
20.10.2018 01:00:00 12,7 8,7 34 18 32 18 W 1025,2 31
20.10.2018 00:00:00 12,5 8,3 35 19 36 19 W 1025,5 30
19.10.2018 23:00:00 12,6 7,6 31 17 36 19 W 1025,4 42
19.10.2018 22:00:00 12,6 7,9 35 19 36 19 W 1025,4 38
19.10.2018 21:00:00 12,6 8,9 31 17 36 19 WZW 1024,9 40
19.10.2018 20:00:00 13,0 8,9 29 16 40 21 WZW 1024,8 40
19.10.2018 19:00:00 13,4 8,5 39 21 36 19 ZW 1024,3 46
19.10.2018 18:00:00 13,5 6,6 35 19 54 29 ZZW 1024,1 46
19.10.2018 17:00:00 13,3 5,8 31 17 32 18 ZZW 1024,4 43
19.10.2018 16:00:00 13,3 5,9 26 14 25 14 ZZW 1024,4 48
19.10.2018 15:00:00 13,2 5,2 21 11 25 14 ZZW 1024,9 36
19.10.2018 14:00:00 12,8 5,4 15 8 14 8 ZZW 1025,8 46
19.10.2018 13:00:00 12,4 4,8 15 8 18 10 ZW 1026,2 43
19.10.2018 12:00:00 12,2 4,5 16 9 18 10 ZW 1026,5 35
19.10.2018 11:00:00 12,0 4,5 15 8 18 10 Z 1026,4 39
19.10.2018 10:00:00 11,9 5,5 11 6 29 16 ZZW 1026,3 43
19.10.2018 09:00:00 11,5 4,7 9 5 11 6 ZW 1026,3 48
19.10.2018 08:00:00 11,5 4,8 9 5 11 6 ZW 1026,4 50
19.10.2018 07:00:00 11,4 4,5 4 2 7 4 - 1026,5 49
19.10.2018 06:00:00 11,3 4,2 5 3 7 4 ZW 1026,5 46
19.10.2018 05:00:00 11,3 5,3 2 1 4 2 - 1026,8 42
19.10.2018 04:00:00 11,4 4,8 2 1 7 4 - 1027,1 46
19.10.2018 03:00:00 11,4 5,1 4 2 7 4 - 1027,1 49
19.10.2018 02:00:00 11,4 5,0 8 4 11 6 ONO 1027,4 48
19.10.2018 01:00:00 11,5 5,6 8 4 11 6 NO 1027,8 49
19.10.2018 00:00:00 11,6 5,5 8 4 11 6 - 1028,0 49
18.10.2018 23:00:00 11,6 5,9 9 5 14 8 - 1028,0 49
18.10.2018 22:00:00 11,7 6,0 8 4 14 8 NNO 1027,9 45
18.10.2018 21:00:00 11,8 5,7 9 5 14 8 - 1027,9 48
18.10.2018 20:00:00 11,9 5,8 9 5 18 10 - 1027,8 47
18.10.2018 19:00:00 12,0 6,5 11 6 18 10 - 1027,6 46
18.10.2018 18:00:00 12,1 6,2 11 6 18 10 - 1027,5 37
18.10.2018 17:00:00 12,1 6,3 13 7 18 10 - 1027,4 47
18.10.2018 16:00:00 12,2 6,4 14 8 18 10 NNO 1027,4 33
18.10.2018 15:00:00 12,1 5,9 16 9 22 12 - 1027,2 40
18.10.2018 14:00:00 12,2 6,5 18 10 25 14 - 1027,5 30
18.10.2018 13:00:00 12,2 6,0 18 10 25 14 NNO 1027,4 26
18.10.2018 12:00:00 12,4 6,7 21 11 25 14 NNO 1027,1 28
18.10.2018 11:00:00 12,4 7,0 22 12 25 14 NNO 1026,8 34
18.10.2018 10:00:00 12,4 7,6 21 11 29 16 - 1026,3 34
18.10.2018 09:00:00 12,4 8,6 15 8 25 14 - 1025,7 31
18.10.2018 08:00:00 12,4 8,5 15 8 25 14 - 1024,9 29
18.10.2018 07:00:00 12,4 8,7 21 11 25 14 - 1024,4 28
18.10.2018 06:00:00 12,4 8,7 22 12 29 16 N 1024,1 37
18.10.2018 05:00:00 12,3 8,8 22 12 25 14 NNW 1023,5 31
18.10.2018 04:00:00 12,3 8,6 22 12 25 14 NNW 1023,2 30
18.10.2018 03:00:00 12,5 8,9 22 12 32 18 NNW 1023,3 30
18.10.2018 02:00:00 12,7 9,4 28 15 29 16 NW 1023,1 25
18.10.2018 01:00:00 12,8 9,9 26 14 25 14 NW 1022,6 26
18.10.2018 00:00:00 12,9 10,2 24 13 25 14 NNW 1022,2 23
17.10.2018 23:00:00 12,9 10,3 26 14 29 16 NW 1021,6 19
17.10.2018 22:00:00 13,0 10,5 24 13 25 14 NW 1021,2 19
17.10.2018 21:00:00 13,2 10,8 21 11 22 12 NW 1020,8 22
17.10.2018 20:00:00 13,4 11,6 18 10 18 10 NW 1020,1 24
17.10.2018 19:00:00 13,4 11,7 15 8 18 10 NW 1019,4 30
17.10.2018 18:00:00 13,6 12,1 16 9 18 10 NW 1018,9 16
17.10.2018 17:00:00 13,8 12,6 16 9 36 19 WNW 1018,5 11
17.10.2018 16:00:00 13,8 12,4 22 12 29 16 W 1018,2 17
17.10.2018 15:00:00 14,0 11,8 16 9 18 10 WZW 1017,9 25
17.10.2018 14:00:00 14,2 11,6 18 10 22 12 WZW 1017,7 27
17.10.2018 13:00:00 14,1 11,6 22 12 25 14 WZW 1017,6 25
17.10.2018 12:00:00 14,1 12,4 26 14 25 14 WZW 1017,4 17
17.10.2018 11:00:00 14,4 12,8 28 15 29 16 WZW 1016,9 15
17.10.2018 10:00:00 14,4 13,3 29 16 29 16 WZW 1016,5 10
17.10.2018 09:00:00 14,6 13,7 22 12 25 14 ZW 1015,9 7
17.10.2018 08:00:00 14,7 13,7 26 14 29 16 WZW 1015,4 9
17.10.2018 07:00:00 14,8 13,7 24 13 29 16 ZW 1015,1 10
17.10.2018 06:00:00 14,9 13,9 29 16 29 16 ZW 1014,9 11
17.10.2018 05:00:00 15,3 13,9 31 17 32 18 ZW 1014,6 14
17.10.2018 04:00:00 15,5 13,9 34 18 32 18 ZZW 1014,6 16
17.10.2018 03:00:00 15,6 14,0 34 18 32 18 ZZW 1014,7 15
17.10.2018 02:00:00 15,5 14,1 34 18 32 18 Z 1015,0 15
17.10.2018 01:00:00 15,2 14,3 29 16 29 16 Z 1015,1 13
17.10.2018 00:00:00 14,0 13,8 21 11 25 14 Z 1015,5 0,2
16.10.2018 23:00:00 14,9 14,2 22 12 29 16 ZZW 1015,8 2,6
16.10.2018 22:00:00 14,8 13,8 26 14 29 16 ZW 1016,0 6
16.10.2018 21:00:00 14,8 13,7 29 16 29 16 ZW 1016,0 7
16.10.2018 20:00:00 14,8 13,5 31 17 36 19 ZW 1015,7 9
16.10.2018 19:00:00 14,9 13,3 31 17 32 18 ZZW 1015,4 12
16.10.2018 18:00:00 15,0 13,7 28 15 29 16 ZW 1015,4 10
16.10.2018 17:00:00 15,3 14,4 34 18 36 19 ZZW 1015,3 7
16.10.2018 16:00:00 14,7 14,4 29 16 29 16 Z 1015,6 1,1
16.10.2018 15:00:00 14,8 14,2 31 17 32 18 Z 1015,3 0,4
16.10.2018 14:00:00 15,2 13,8 28 15 36 19 Z 1015,7 13
16.10.2018 13:00:00 14,6 13,3 34 18 43 23 ZZO 1016,1 13
16.10.2018 12:00:00 14,2 12,8 28 15 25 14 ZO 1016,3 15
16.10.2018 11:00:00 13,9 12,0 29 16 29 16 OZO 1016,3 22
16.10.2018 10:00:00 13,5 11,3 24 13 25 14 OZO 1016,2 27
16.10.2018 09:00:00 12,9 11,0 22 12 22 12 O 1016,3 29
16.10.2018 08:00:00 12,4 10,5 21 11 22 12 O 1016,1 16
16.10.2018 07:00:00 12,5 10,3 21 11 22 12 ONO 1016,1 22
16.10.2018 06:00:00 12,4 10,0 22 12 25 14 ONO 1016,0 31
16.10.2018 05:00:00 12,3 10,0 28 15 25 14 ONO 1015,2 28
16.10.2018 04:00:00 12,2 10,0 26 14 29 16 ONO 1015,2 32
16.10.2018 03:00:00 11,9 9,7 29 16 29 16 ONO 1015,4 33
16.10.2018 02:00:00 12,1 10,0 31 17 32 18 NO 1015,5 30
16.10.2018 01:00:00 12,0 10,2 34 18 32 18 NO 1015,4 21
16.10.2018 00:00:00 12,3 9,3 31 17 32 18 NO 1015,3 25
15.10.2018 23:00:00 12,4 8,9 35 19 36 19 NO 1014,9 33
15.10.2018 22:00:00 12,2 9,4 34 18 36 19 NO 1014,6 25
15.10.2018 21:00:00 12,0 10,1 35 19 36 19 NO 1014,5 21
15.10.2018 20:00:00 12,1 9,8 41 22 43 23 NO 1014,1 39
15.10.2018 19:00:00 11,9 10,3 35 19 40 21 NO 1013,6 17
15.10.2018 18:00:00 12,3 9,6 39 21 40 21 NO 1013,5 36
15.10.2018 17:00:00 12,1 9,8 41 22 43 23 NO 1013,1 38
15.10.2018 16:00:00 12,0 10,3 42 23 43 23 NO 1012,8 27
15.10.2018 15:00:00 12,3 10,5 35 19 36 19 NNO 1012,8 25
15.10.2018 14:00:00 12,2 10,3 41 22 40 21 NO 1012,1 28
15.10.2018 13:00:00 11,9 10,5 39 21 40 21 NO 1012,2 6
15.10.2018 12:00:00 12,3 10,3 41 22 40 21 NO 1011,9 26
15.10.2018 11:00:00 12,3 10,4 41 22 40 21 NO 1011,5 22
15.10.2018 10:00:00 11,8 10,5 39 21 40 21 NO 1011,0 16
15.10.2018 09:00:00 12,1 10,2 28 15 36 19 - 1011,6 14
15.10.2018 08:00:00 11,7 10,9 37 20 36 19 NO 1010,8 11
15.10.2018 07:00:00 12,0 11,0 37 20 40 21 NO 1010,4 18
15.10.2018 06:00:00 12,6 10,7 29 16 32 18 NNO 1010,1 28
15.10.2018 05:00:00 12,3 11,0 34 18 32 18 NNO 1010,0 23
15.10.2018 04:00:00 12,2 10,8 29 16 32 18 NNO 1010,6 23
15.10.2018 03:00:00 12,3 11,0 35 19 40 21 NO 1009,5 25
15.10.2018 02:00:00 11,7 10,5 35 19 47 25 NNO 1009,6 25
15.10.2018 01:00:00 11,7 10,4 22 12 43 23 - 1009,8 13
15.10.2018 00:00:00 11,9 11,0 31 17 43 23 - 1009,4 15
14.10.2018 23:00:00 12,6 11,9 26 14 40 21 - 1008,5 26
14.10.2018 22:00:00 12,9 12,6 22 12 32 18 N 1007,7 11
14.10.2018 21:00:00 13,2 13,1 21 11 - - NNW 1007,0 -
14.10.2018 20:00:00 14,2 13,7 18 10 32 18 W 1006,1 1,7
14.10.2018 19:00:00 15,5 13,9 29 16 32 18 ZZW 1005,4 9
14.10.2018 18:00:00 15,8 13,4 34 18 32 18 Z 1005,0 11
14.10.2018 17:00:00 15,8 13,6 34 18 36 19 Z 1004,9 10
14.10.2018 16:00:00 16,0 13,8 29 16 29 16 ZZO 1004,5 9
14.10.2018 15:00:00 16,0 13,9 29 16 29 16 ZZO 1004,6 10
14.10.2018 14:00:00 15,9 13,9 26 14 25 14 ZZO 1005,1 13
14.10.2018 13:00:00 16,0 13,9 28 15 25 14 Z 1006,0 15
14.10.2018 12:00:00 16,0 13,9 29 16 29 16 Z 1006,2 16
14.10.2018 11:00:00 16,1 13,9 29 16 29 16 Z 1006,7 16
14.10.2018 10:00:00 16,1 13,8 34 18 36 19 Z 1007,3 17
14.10.2018 09:00:00 16,2 13,9 37 20 36 19 ZZO 1006,9 18
14.10.2018 08:00:00 16,4 14,0 39 21 40 21 Z 1007,0 20
14.10.2018 07:00:00 16,9 14,0 42 23 43 23 Z 1007,1 20
14.10.2018 06:00:00 17,0 13,9 44 24 43 23 Z 1007,4 18
14.10.2018 05:00:00 17,0 13,9 48 26 43 23 Z 1007,6 16
14.10.2018 04:00:00 17,0 14,1 46 25 47 25 Z 1008,1 20

tt = temperatuur
td = dauwpunt
ff = windsnelheid
fx = windstoten
dd = windrichting
ppp = luchtdruk
vv = zicht

Weerstations in de omgeving